OK1VCF-8 Weather Reports


time (UTC)temp
C
wind
direction
speed
KPH
gust
KPH
rain 1hr
cm
rain 24hr
cm
rain mn
cm
humidity
%
barometer
mb
20260510204950 14 0 0.0 0.0 0.00 0.00 0.00 62 1008.8
20260510204233 14 0 0.0 0.0 0.00 0.00 0.00 62 1008.8
20260510203515 14 0 0.0 0.0 0.00 0.00 0.00 62 1008.8
20260510202757 14 0 0.0 0.0 0.00 0.00 0.00 62 1008.9
20260510202039 14 0 0.0 0.0 0.00 0.00 0.00 60 1009.0
20260510201037 14 0 0.0 0.0 0.00 0.00 0.00 60 1009.2
20260510200317 15 0 0.0 0.0 0.00 0.00 0.00 59 1009.2
20260510195557 15 0 0.0 0.0 0.00 0.00 0.00 58 1009.4
20260510194839 15 0 0.0 0.0 0.00 0.00 0.00 58 1009.5
20260510194120 15 0 0.0 0.0 0.00 0.00 0.00 58 1009.6
20260510193404 15 0 0.0 0.0 0.00 0.00 0.00 58 1009.6
20260510192646 15 0 0.0 0.0 0.00 0.00 0.00 56 1009.5
20260510191927 15 0 0.0 0.0 0.00 0.00 0.00 56 1009.6
20260510191210 15 0 0.0 0.0 0.00 0.00 0.00 55 1009.6
20260510190451 15 0 0.0 0.0 0.00 0.00 0.00 54 1009.6
20260510185729 16 0 0.0 0.0 0.00 0.00 0.00 52 1009.6
20260510185012 16 0 0.0 0.0 0.00 0.00 0.00 52 1009.4
20260510184253 16 0 0.0 0.0 0.00 0.00 0.00 50 1009.4
20260510183534 16 0 0.0 0.0 0.00 0.00 0.00 50 1009.4
20260510182815 16 0 0.0 0.0 0.00 0.00 0.00 48 1009.3
20260510181813 17 0 0.0 0.0 0.00 0.00 0.00 46 1009.2
20260510181055 17 0 0.0 0.0 0.00 0.00 0.00 44 1009.2
20260510180336 17 0 0.0 0.0 0.00 0.00 0.00 43 1009.2
20260510175614 18 0 0.0 0.0 0.00 0.00 0.00 42 1009.2
20260510174856 18 0 0.0 0.0 0.00 0.00 0.00 42 1009.3
20260510174137 18 0 0.0 0.0 0.00 0.00 0.00 42 1009.3
20260510173419 19 0 0.0 0.0 0.00 0.00 0.00 40 1009.4
20260510172701 20 0 0.0 0.0 0.00 0.00 0.00 38 1009.6
20260510171940 20 0 0.0 0.0 0.00 0.00 0.00 37 1009.6
20260510171222 20 0 0.0 0.0 0.00 0.00 0.00 38 1009.8
20260510170502 21 0 0.0 0.0 0.00 0.00 0.00 36 1010.0
20260510165742 21 0 0.0 0.0 0.00 0.00 0.00 36 1010.2
20260510165023 22 0 0.0 0.0 0.00 0.00 0.00 34 1010.2
20260510164304 22 0 0.0 0.0 0.00 0.00 0.00 34 1010.3
20260510163545 21 0 0.0 0.0 0.00 0.00 0.00 38 1010.4
20260510162541 21 0 0.0 0.0 0.00 0.00 0.00 38 1010.6
20260510161822 21 0 0.0 0.0 0.00 0.00 0.00 38 1010.6
20260510161103 21 0 0.0 0.0 0.00 0.00 0.00 38 1010.6
20260510160344 21 0 0.0 0.0 0.00 0.00 0.00 35 1010.8
20260510155620 22 0 0.0 0.0 0.00 0.00 0.00 34 1010.8
20260510154902 22 0 0.0 0.0 0.00 0.00 0.00 34 1010.8
20260510154143 23 0 0.0 0.0 0.00 0.00 0.00 33 1011.0
20260510153423 24 0 0.0 0.0 0.00 0.00 0.00 32 1011.2
20260510152704 24 0 0.0 0.0 0.00 0.00 0.00 32 1011.2
20260510151944 23 0 0.0 0.0 0.00 0.00 0.00 34 1011.2
20260510151222 25 0 0.0 0.0 0.00 0.00 0.00 30 1011.4
20260510150501 24 0 0.0 0.0 0.00 0.00 0.00 31 1011.6
20260510145739 25 0 0.0 0.0 0.00 0.00 0.00 30 1011.6
20260510145020 26 0 0.0 0.0 0.00 0.00 0.00 30 1011.6
20260510144300 24 0 0.0 0.0 0.00 0.00 0.00 34 1011.7
20260510143256 23 0 0.0 0.0 0.00 0.00 0.00 34 1011.6
20260510142537 23 0 0.0 0.0 0.00 0.00 0.00 35 1011.7
20260510141817 23 0 0.0 0.0 0.00 0.00 0.00 36 1011.8
20260510141058 22 0 0.0 0.0 0.00 0.00 0.00 38 1011.8
20260510140339 21 0 0.0 0.0 0.00 0.00 0.00 39 1011.8
20260510135617 21 0 0.0 0.0 0.00 0.00 0.00 40 1011.9
20260510134858 21 0 0.0 0.0 0.00 0.00 0.00 40 1012.1
20260510134140 22 0 0.0 0.0 0.00 0.00 0.00 38 1012.2
20260510133419 21 0 0.0 0.0 0.00 0.00 0.00 38 1012.4
20260510132700 22 0 0.0 0.0 0.00 0.00 0.00 38 1012.4
20260510131939 22 0 0.0 0.0 0.00 0.00 0.00 38 1012.6
20260510131216 21 0 0.0 0.0 0.00 0.00 0.00 38 1012.7
20260510130445 21 0 0.0 0.0 0.00 0.00 0.00 39 1012.7
20260510125702 21 0 0.0 0.0 0.00 0.00 0.00 40 1012.8
20260510124908 21 0 0.0 0.0 0.00 0.00 0.00 40 1012.9
20260510123734 21 0 0.0 0.0 0.00 0.00 0.00 39 1013.0
20260510122905 21 0 0.0 0.0 0.00 0.00 0.00 40 1013.1
20260510122035 21 0 0.0 0.0 0.00 0.00 0.00 41 1013.4
20260510121212 20 0 0.0 0.0 0.00 0.00 0.00 40 1013.4
20260510120351 20 0 0.0 0.0 0.00 0.00 0.00 45 1013.4
20260510114054 20 0 0.0 0.0 0.00 0.00 0.00 47 1014.0
20260510113312 19 0 0.0 0.0 0.00 0.00 0.00 46 1014.0
20260510112534 20 0 0.0 0.0 0.00 0.00 0.00 49 1014.0
20260510111810 19 0 0.0 0.0 0.00 0.00 0.00 50 1014.2
20260510111049 19 0 0.0 0.0 0.00 0.00 0.00 50 1014.2
20260510110329 19 0 0.0 0.0 0.00 0.00 0.00 50 1014.2
20260510105607 18 0 0.0 0.0 0.00 0.00 0.00 51 1014.4
20260510104848 18 0 0.0 0.0 0.00 0.00 0.00 52 1014.4
20260510103844 18 0 0.0 0.0 0.00 0.00 0.00 53 1015.0
20260510103124 18 0 0.0 0.0 0.00 0.00 0.00 53 1014.6
20260510102403 18 0 0.0 0.0 0.00 0.00 0.00 52 1014.6
20260510101644 17 0 0.0 0.0 0.00 0.00 0.00 54 1014.6
20260510100924 18 0 0.0 0.0 0.00 0.00 0.00 55 1015.0
20260510100204 17 0 0.0 0.0 0.00 0.00 0.00 55 1015.2
20260510095443 17 0 0.0 0.0 0.00 0.00 0.00 54 1015.1
20260510094723 17 0 0.0 0.0 0.00 0.00 0.00 54 1015.2
20260510094003 16 0 0.0 0.0 0.00 0.00 0.00 54 1015.3
20260510093243 17 0 0.0 0.0 0.00 0.00 0.00 54 1015.4
20260510092522 16 0 0.0 0.0 0.00 0.00 0.00 55 1015.6
20260510091805 16 0 0.0 0.0 0.00 0.00 0.00 55 1015.6
20260510091045 16 0 0.0 0.0 0.00 0.00 0.00 58 1015.8
20260510090327 16 0 0.0 0.0 0.00 0.00 0.00 56 1015.9
20260510085606 16 0 0.0 0.0 0.00 0.00 0.00 56 1015.9
20260510084603 15 0 0.0 0.0 0.00 0.00 0.00 58 1016.0
20260510083842 15 0 0.0 0.0 0.00 0.00 0.00 58 1016.5
20260510083122 15 0 0.0 0.0 0.00 0.00 0.00 58 1016.0
20260510082401 15 0 0.0 0.0 0.00 0.00 0.00 60 1016.4
20260510081641 14 0 0.0 0.0 0.00 0.00 0.00 60 1016.4
20260510080920 14 0 0.0 0.0 0.00 0.00 0.00 60 1016.5
20260510080202 14 0 0.0 0.0 0.00 0.00 0.00 61 1016.4
20260510075441 14 0 0.0 0.0 0.00 0.00 0.00 60 1016.6
20260510074722 14 0 0.0 0.0 0.00 0.00 0.00 60 1016.6
20260510074004 14 0 0.0 0.0 0.00 0.00 0.00 62 1016.6
20260510073243 13 0 0.0 0.0 0.00 0.00 0.00 63 1016.7
20260510072516 13 0 0.0 0.0 0.00 0.00 0.00 64 1016.8
20260510071736 13 0 0.0 0.0 0.00 0.00 0.00 64 1017.0
20260510070959 12 0 0.0 0.0 0.00 0.00 0.00 66 1017.1
20260510070216 12 0 0.0 0.0 0.00 0.00 0.00 66 1017.0
20260510065139 12 0 0.0 0.0 0.00 0.00 0.00 67 1017.3
20260510064359 12 0 0.0 0.0 0.00 0.00 0.00 68 1017.4
20260510063620 12 0 0.0 0.0 0.00 0.00 0.00 70 1017.6
20260510062839 11 0 0.0 0.0 0.00 0.00 0.00 70 1017.4
20260510062101 11 0 0.0 0.0 0.00 0.00 0.00 72 1017.4
20260510061325 11 0 0.0 0.0 0.00 0.00 0.00 72 1017.4
20260510060549 11 0 0.0 0.0 0.00 0.00 0.00 72 1017.4
20260510055812 11 0 0.0 0.0 0.00 0.00 0.00 72 1017.6
20260510055040 11 0 0.0 0.0 0.00 0.00 0.00 74 1017.7
20260510054322 11 0 0.0 0.0 0.00 0.00 0.00 74 1017.8
20260510053603 10 0 0.0 0.0 0.00 0.00 0.00 76 1017.8
20260510052844 10 0 0.0 0.0 0.00 0.00 0.00 77 1017.8
20260510052126 10 0 0.0 0.0 0.00 0.00 0.00 76 1017.9
20260510051407 10 0 0.0 0.0 0.00 0.00 0.00 77 1017.8
20260510050649 9 0 0.0 0.0 0.00 0.00 0.00 78 1017.8
20260510045644 9 0 0.0 0.0 0.00 0.00 0.00 78 1017.8
20260510044927 10 0 0.0 0.0 0.00 0.00 0.00 72 1017.8
20260510044209 13 0 0.0 0.0 0.00 0.00 0.00 64 1017.8
20260510043452 13 0 0.0 0.0 0.00 0.00 0.00 66 1017.7
20260510042731 11 0 0.0 0.0 0.00 0.00 0.00 75 1017.8
20260510042013 8 0 0.0 0.0 0.00 0.00 0.00 79 1017.8
20260510041255 8 0 0.0 0.0 0.00 0.00 0.00 78 1017.8
20260510040538 11 0 0.0 0.0 0.00 0.00 0.00 77 1017.8
20260510035818 10 0 0.0 0.0 0.00 0.00 0.00 80 1018.0
20260510035101 8 0 0.0 0.0 0.00 0.00 0.00 87 1017.8
20260510034342 6 0 0.0 0.0 0.00 0.00 0.00 90 1017.8
20260510033625 6 0 0.0 0.0 0.00 0.00 0.00 90 1017.6
20260510032907 5 0 0.0 0.0 0.00 0.00 0.00 89 1017.6
20260510032148 5 0 0.0 0.0 0.00 0.00 0.00 89 1017.6
20260510031430 5 0 0.0 0.0 0.00 0.00 0.00 88 1017.5
20260510030429 6 0 0.0 0.0 0.00 0.00 0.00 89 1017.6
20260510025709 5 0 0.0 0.0 0.00 0.00 0.00 89 1017.6
20260510024952 5 0 0.0 0.0 0.00 0.00 0.00 88 1017.8
20260510024234 5 0 0.0 0.0 0.00 0.00 0.00 88 1017.8
20260510023517 6 0 0.0 0.0 0.00 0.00 0.00 88 1017.6
20260510022800 6 0 0.0 0.0 0.00 0.00 0.00 88 1017.8
20260510022041 6 0 0.0 0.0 0.00 0.00 0.00 88 1017.8
20260510021322 6 0 0.0 0.0 0.00 0.00 0.00 88 1018.1
20260510020605 6 0 0.0 0.0 0.00 0.00 0.00 88 1018.2
20260510015847 6 0 0.0 0.0 0.00 0.00 0.00 87 1018.2
20260510015130 6 0 0.0 0.0 0.00 0.00 0.00 86 1018.2
20260510014413 6 0 0.0 0.0 0.00 0.00 0.00 87 1018.2
20260510013655 7 0 0.0 0.0 0.00 0.00 0.00 88 1018.3
20260510012935 6 0 0.0 0.0 0.00 0.00 0.00 85 1018.4
20260510012216 7 0 0.0 0.0 0.00 0.00 0.00 85 1018.4
20260510011133 7 0 0.0 0.0 0.00 0.00 0.00 85 1018.4
20260510010336 7 0 0.0 0.0 0.00 0.00 0.00 86 1018.4
20260510005538 6 0 0.0 0.0 0.00 0.00 0.00 85 1018.4
20260510004750 7 0 0.0 0.0 0.00 0.00 0.00 84 1018.5
20260510002511 7 0 0.0 0.0 0.00 0.00 0.00 84 1018.8
20260510001714 7 0 0.0 0.0 0.00 0.00 0.00 84 1019.0
20260510000916 7 0 0.0 0.0 0.00 0.00 0.00 84 1019.0
20260510000120 7 0 0.0 0.0 0.00 0.00 0.00 82 1019.2
20260509235315 7 0 0.0 0.0 0.00 0.00 0.00 82 1019.2
20260509234518 7 0 0.0 0.0 0.00 0.00 0.00 80 1019.2
20260509233731 8 0 0.0 0.0 0.00 0.00 0.00 83 1019.3
20260509232955 7 0 0.0 0.0 0.00 0.00 0.00 82 1019.2
20260509232223 8 0 0.0 0.0 0.00 0.00 0.00 81 1019.2
20260509231221 8 0 0.0 0.0 0.00 0.00 0.00 80 1019.4
20260509230502 8 0 0.0 0.0 0.00 0.00 0.00 82 1019.5
20260509225743 8 0 0.0 0.0 0.00 0.00 0.00 82 1019.4
20260509225024 8 0 0.0 0.0 0.00 0.00 0.00 80 1019.6
20260509224305 8 0 0.0 0.0 0.00 0.00 0.00 80 1019.5
20260509223548 8 0 0.0 0.0 0.00 0.00 0.00 80 1019.6
20260509222830 8 0 0.0 0.0 0.00 0.00 0.00 79 1019.6
20260509222111 8 0 0.0 0.0 0.00 0.00 0.00 80 1019.6
20260509221352 8 0 0.0 0.0 0.00 0.00 0.00 78 1019.6
20260509220634 8 0 0.0 0.0 0.00 0.00 0.00 78 1019.5
20260509215915 9 0 0.0 0.0 0.00 0.00 0.00 78 1019.5
20260509215157 9 0 0.0 0.0 0.00 0.00 0.00 79 1019.6
20260509214438 8 0 0.0 0.0 0.00 0.00 0.00 80 1019.8
20260509212017 10 0 0.0 0.0 0.00 0.00 0.00 78 1019.8
20260509211258 10 0 0.0 0.0 0.00 0.00 0.00 78 1019.9
20260509210539 10 0 0.0 0.0 0.00 0.00 0.00 78 1020.0
20260509205822 10 0 0.0 0.0 0.00 0.00 0.00 78 1019.9